Melbourne Airport, Australia

7:20 PM AEST on May 28, 2017 (GMT +1000)
Melbourne International

Weather History for YMML - August, 2013

Change the Weather History Date:

Saturday, August 10, 2013

  Actual Average Record
Temperature  
Mean Temperature 52 °F -  
Max Temperature 60 °F 57 °F 62 °F (1998)
Min Temperature 44 °F 42 °F 33 °F (2003)
Degree Days  
Heating Degree Days 13    
Growing Degree Days 2 (Base 50)    
Moisture  
Dew Point 42 °F    
Average Humidity 66    
Maximum Humidity 87    
Minimum Humidity 33    
Precipitation  
Precipitation 0.00 in 0.06 in - ()
Sea Level Pressure  
Sea Level Pressure 29.98 in    
Wind  
Wind Speed 14 mph ()    
Max Wind Speed 23 mph    
Max Gust Speed -    
Visibility 7.9 miles    
Events      
Averages and records for this station are not official NWS values.
T = Trace of Precipitation, MM = Missing Value Source: Averaged Metar Reports

Daily Weather History Graph

Daily Weather History Graph

Search for Another Location

Airport or City:

Trip Planner

Search our weather history database for the weather conditions in past years. The results will help you decide how hot, cold, wet, or windy it might be!

Date:

Astronomy

Aug. 10, 2013 Rise Set
Actual Time 7:11 AM AEST 5:41 PM AEST
Civil Twilight 6:44 AM AEST 6:08 PM AEST
Nautical Twilight 6:13 AM AEST 6:39 PM AEST
Astronomical Twilight 5:42 AM AEST 7:10 PM AEST
Moon 8:31 AM AEST (8/10) 9:02 PM AEST (8/10)
Length of Visible Light 11h 24m
Length of Day
10h 29m
Waxing Crescent, 10% of the Moon is Illuminated
Aug 10
Waxing Crescent
Aug 14
First Quarter
Aug 21
Full
Aug 28
Last Quarter
Sep 5
New

Hourly Weather History & Observations

Time (AEST) Temp. Windchill Dew Point Humidity Pressure Visibility Wind Dir Wind Speed Gust Speed Precip Events Conditions
12:00 AM 49 °F - 44 °F 79% 29.89 in 25 mi North 23.0 mph - -   Partly Cloudy
12:00 AM 48.2 °F - 44.6 °F 87% 29.89 in 6.2 mi North 23.0 mph - N/A   Partly Cloudy
12:30 AM 48.2 °F - 44.6 °F 87% 29.89 in 6.2 mi North 20.7 mph - N/A   Partly Cloudy
1:00 AM 48 °F - 44 °F 81% 29.90 in - North 20.7 mph - -  
1:00 AM 48.2 °F - 44.6 °F 87% 29.89 in 6.2 mi North 20.7 mph - N/A   Partly Cloudy
1:30 AM 48.2 °F - 44.6 °F 87% 29.89 in 6.2 mi North 18.4 mph - N/A   Partly Cloudy
2:00 AM 48 °F - 44 °F 82% 29.91 in - North 19.6 mph - -  
2:00 AM 48.2 °F - 44.6 °F 87% 29.89 in 6.2 mi North 19.6 mph - N/A   Partly Cloudy
2:30 AM 48.2 °F - 44.6 °F 87% 29.89 in 6.2 mi North 18.4 mph - N/A   Mostly Cloudy
3:00 AM 48 °F - 45 °F 84% 29.91 in 19 mi North 18.4 mph - -   Mostly Cloudy
3:00 AM 48.2 °F - 44.6 °F 87% 29.89 in 6.2 mi North 18.4 mph - N/A   Mostly Cloudy
3:30 AM 48.2 °F - 44.6 °F 87% 29.89 in 6.2 mi North 17.3 mph - N/A   Mostly Cloudy
4:00 AM 49 °F - 45 °F 81% 29.93 in - North 13.8 mph - -  
4:00 AM 50.0 °F - 44.6 °F 82% 29.92 in 6.2 mi North 13.8 mph - N/A   Mostly Cloudy
4:30 AM 50.0 °F - 44.6 °F 82% 29.92 in 6.2 mi North 11.5 mph - N/A   Mostly Cloudy
5:00 AM 49 °F - 45 °F 82% 29.95 in - WNW 8.1 mph - -  
5:00 AM 50.0 °F - 44.6 °F 82% 29.92 in 6.2 mi WNW 8.1 mph - N/A   Mostly Cloudy
5:30 AM 48.2 °F - 44.6 °F 87% 29.95 in 6.2 mi NNW 8.1 mph - N/A   Scattered Clouds
6:00 AM 49 °F - 44 °F 76% 29.96 in 19 mi NW 10.4 mph - -   Partly Cloudy
6:00 AM 48.2 °F - 44.6 °F 87% 29.95 in 6.2 mi NW 10.4 mph - N/A   Partly Cloudy
6:30 AM 48.2 °F - 42.8 °F 82% 29.95 in 6.2 mi NW 9.2 mph - N/A   Partly Cloudy
7:00 AM 45 °F - 42 °F 83% 29.98 in - North 11.5 mph - -  
7:00 AM 44.6 °F 38.8 °F 41.0 °F 87% 29.95 in 6.2 mi North 11.5 mph - N/A   Partly Cloudy
7:30 AM 46.4 °F 41.5 °F 41.0 °F 81% 29.98 in - North 10.4 mph - N/A   Clear
8:00 AM 48 °F - 41 °F 68% 30.01 in - North 10.4 mph - -  
8:00 AM 48.2 °F - 41.0 °F 76% 30.01 in - North 10.4 mph - N/A   Clear
8:30 AM 50.0 °F - 41.0 °F 71% 30.01 in - NNW 10.4 mph - N/A   Clear
9:00 AM 52 °F - 42 °F 59% 30.03 in 12 mi NNW 9.2 mph - -   Haze
9:00 AM 51.8 °F - 42.8 °F 71% 30.01 in - NNW 9.2 mph - N/A   Clear
9:30 AM 53.6 °F - 41.0 °F 62% 30.01 in - WNW 12.7 mph - N/A   Clear
10:00 AM 55 °F - 41 °F 48% 30.04 in - WNW 15.0 mph - -  
10:00 AM 55.4 °F - 41.0 °F 58% 30.01 in - WNW 15.0 mph - N/A   Clear
10:30 AM 55.4 °F - 41.0 °F 58% 30.04 in - West 15.0 mph - N/A   Clear
11:00 AM 56 °F - 38 °F 40% 30.04 in - West 17.3 mph - -  
11:00 AM 57.2 °F - 39.2 °F 51% 30.04 in 6.2 mi West 17.3 mph - N/A   Partly Cloudy
11:30 AM 57.2 °F - 39.2 °F 51% 30.01 in 6.2 mi WNW 17.3 mph - N/A   Partly Cloudy
12:00 PM 59 °F - 41 °F 41% 30.03 in 12 mi WNW 12.7 mph - -   Haze
12:00 PM 59.0 °F - 41.0 °F 51% 30.01 in 6.2 mi WNW 12.7 mph - N/A   Partly Cloudy
12:30 PM 57.2 °F - 41.0 °F 55% 30.01 in 6.2 mi West 12.7 mph - N/A   Scattered Clouds
1:00 PM 59 °F - 41 °F 40% 30.01 in - West 12.7 mph - -  
1:00 PM 59.0 °F - 41.0 °F 51% 30.01 in 6.2 mi West 12.7 mph - N/A   Scattered Clouds
1:30 PM 59.0 °F - 39.2 °F 48% 29.98 in 6.2 mi West 15.0 mph - N/A   Scattered Clouds
2:00 PM 60 °F - 40 °F 36% 30.01 in - West 15.0 mph - -  
2:00 PM 60.8 °F - 41.0 °F 48% 29.98 in 6.2 mi West 15.0 mph - N/A   Scattered Clouds
2:30 PM 60.8 °F - 41.0 °F 48% 29.98 in 6.2 mi West 12.7 mph - N/A   Scattered Clouds
3:00 PM 60 °F - 39 °F 33% 30.01 in 16 mi West 13.8 mph - -   Haze
3:00 PM 60.8 °F - 39.2 °F 45% 29.98 in 6.2 mi West 13.8 mph - N/A   Scattered Clouds
3:30 PM 60.8 °F - 39.2 °F 45% 30.01 in 6.2 mi West 12.7 mph - N/A   Scattered Clouds
4:00 PM 60 °F - 39 °F 34% 30.01 in - WSW 10.4 mph - -  
4:00 PM 60.8 °F - 39.2 °F 45% 30.01 in 6.2 mi WSW 10.4 mph - N/A   Mostly Cloudy
4:30 PM 59.0 °F - 39.2 °F 48% 30.01 in 6.2 mi WSW 10.4 mph - N/A   Mostly Cloudy
5:00 PM 58 °F - 41 °F 41% 30.01 in - WSW 8.1 mph - -  
5:00 PM 59.0 °F - 41.0 °F 51% 30.01 in 6.2 mi WSW 8.1 mph - N/A   Mostly Cloudy
5:30 PM 57.2 °F - 42.8 °F 59% 30.01 in 6.2 mi WSW 5.8 mph - N/A   Mostly Cloudy
6:00 PM 54 °F - 42 °F 54% 30.02 in 16 mi West 6.9 mph - -   Haze
6:00 PM 53.6 °F - 42.8 °F 67% 30.01 in 6.2 mi West 6.9 mph - N/A   Scattered Clouds
6:30 PM 55.4 °F - 39.2 °F 54% 30.01 in - NW 5.8 mph - N/A   Clear
7:00 PM 53 °F - 40 °F 52% 30.02 in - North 6.9 mph - -  
7:00 PM 53.6 °F - 41.0 °F 62% 30.01 in - North 6.9 mph - N/A   Clear
7:30 PM 51.8 °F - 39.2 °F 62% 30.01 in - NNW 10.4 mph - N/A   Clear
8:00 PM 51 °F - 40 °F 56% 30.04 in - NNW 10.4 mph - -  
8:00 PM 51.8 °F - 41.0 °F 67% 30.04 in - NNW 10.4 mph - N/A   Clear
8:30 PM 46.4 °F 41.1 °F 41.0 °F 81% 30.01 in - North 11.5 mph - N/A   Clear
9:00 PM 49 °F - 41 °F 66% 30.04 in 16 mi North 12.7 mph - -   Haze
9:00 PM 48.2 °F - 41.0 °F 76% 30.04 in - North 12.7 mph - N/A   Clear
9:30 PM 48.2 °F - 41.0 °F 76% 30.04 in - North 12.7 mph - N/A   Clear
10:00 PM 46 °F - 40 °F 74% 30.05 in - North 12.7 mph - -  
10:00 PM 46.4 °F 40.7 °F 41.0 °F 81% 30.04 in - North 12.7 mph - N/A   Clear
10:30 PM 50.0 °F - 41.0 °F 71% 30.04 in 6.2 mi NNW 12.7 mph - N/A   Scattered Clouds
11:00 PM 47 °F - 41 °F 71% 30.04 in - North 12.7 mph - -  
11:00 PM 48.2 °F - 41.0 °F 76% 30.01 in 6.2 mi North 12.7 mph - N/A   Partly Cloudy
11:30 PM 46.4 °F 39.8 °F 41.0 °F 81% 30.01 in 6.2 mi North 16.1 mph - N/A   Partly Cloudy